• In Schweiz
  • Länderverzeichnis
  • Für 7 Tage
  • Wassertemperatur
  • Satellitenkarten
  • Wetterkarte
  • Widgets
  • user-avatar
    Anmelden

    Stündliche Wetter Blenheim

    Heute, 24 November, Freitag

    Zeit Temperatur Niederschläge Wind Luftdruck Luftfeuchtigkeit
    00:00 +16°C° 0 mm 1 m/S 769 mmHg 86%
    01:00 +16°C° 0 mm 1 m/S 769 mmHg 84%
    02:00 +15°C° 0 mm 1 m/S 769 mmHg 82%
    03:00 +15°C° 0 mm 1 m/S 769 mmHg 80%
    04:00 +16°C° 0 mm 2 m/S 769 mmHg 77%
    05:00 +16°C° 0 mm 2 m/S 769 mmHg 74%
    06:00 +17°C° 0 mm 2 m/S 768 mmHg 68%
    07:00 +20°C° 0 mm 3 m/S 768 mmHg 61%
    08:00 +22°C° 0 mm 3 m/S 768 mmHg 55%
    09:00 +25°C° 0 mm 4 m/S 768 mmHg 48%
    10:00 +26°C° 0 mm 4 m/S 768 mmHg 46%
    11:00 +27°C° 0 mm 5 m/S 768 mmHg 44%
    12:00 +27°C° 0 mm 6 m/S 768 mmHg 43%
    13:00 +27°C° 0 mm 6 m/S 767 mmHg 43%
    14:00 +27°C° 0 mm 6 m/S 767 mmHg 44%
    15:00 +27°C° 0 mm 6 m/S 767 mmHg 44%
    16:00 +25°C° 0 mm 5 m/S 766 mmHg 49%
    17:00 +23°C° 0 mm 5 m/S 766 mmHg 55%
    18:00 +22°C° 0 mm 5 m/S 766 mmHg 60%
    19:00 +20°C° 0 mm 4 m/S 766 mmHg 68%
    20:00 +19°C° 0 mm 4 m/S 767 mmHg 75%
    21:00 +17°C° 0 mm 3 m/S 767 mmHg 82%
    22:00 +17°C° 0 mm 2 m/S 767 mmHg 84%
    23:00 +16°C° 0 mm 2 m/S 767 mmHg 86%

    Morgen, 25 November, Samstag

    Zeit Temperatur Niederschläge Wind Luftdruck Luftfeuchtigkeit
    00:00 +16°C° 0 mm 1 m/S 767 mmHg 88%
    01:00 +16°C° 0 mm 1 m/S 767 mmHg 89%
    02:00 +16°C° 0 mm 2 m/S 767 mmHg 91%
    03:00 +15°C° 0 mm 2 m/S 768 mmHg 93%
    04:00 +16°C° 0 mm 2 m/S 768 mmHg 92%
    05:00 +16°C° 0 mm 2 m/S 768 mmHg 92%
    06:00 +16°C° 0 mm 2 m/S 768 mmHg 91%
    07:00 +17°C° 0 mm 2 m/S 768 mmHg 88%
    08:00 +18°C° 0 mm 2 m/S 768 mmHg 84%
    09:00 +19°C° 0 mm 3 m/S 769 mmHg 80%
    10:00 +20°C° 0 mm 3 m/S 769 mmHg 77%
    11:00 +20°C° 0 mm 3 m/S 769 mmHg 75%
    12:00 +21°C° 0 mm 4 m/S 768 mmHg 72%
    13:00 +21°C° 0,1 mm 4 m/S 768 mmHg 74%
    14:00 +20°C° 0,1 mm 4 m/S 768 mmHg 75%
    15:00 +20°C° 0,1 mm 4 m/S 768 mmHg 77%
    16:00 +20°C° 0 mm 4 m/S 768 mmHg 79%
    17:00 +19°C° 0 mm 4 m/S 768 mmHg 81%
    18:00 +18°C° 0 mm 4 m/S 768 mmHg 84%
    19:00 +18°C° 0 mm 4 m/S 768 mmHg 88%
    20:00 +17°C° 0 mm 4 m/S 769 mmHg 91%
    21:00 +16°C° 0 mm 3 m/S 769 mmHg 95%
    22:00 +14°C° 0 mm 3 m/S 769 mmHg 95%
    23:00 +14°C° 0 mm 3 m/S 769 mmHg 96%

    übermorgen, 26 November, Sonntag

    Zeit Temperatur Niederschläge Wind Luftdruck Luftfeuchtigkeit
    00:00 +14°C° 0 mm 3 m/S 769 mmHg 96%
    01:00 +14°C° 0 mm 3 m/S 769 mmHg 95%
    02:00 +14°C° 0 mm 3 m/S 769 mmHg 95%
    03:00 +14°C° 0 mm 3 m/S 768 mmHg 94%
    04:00 +14°C° 0 mm 3 m/S 768 mmHg 93%
    05:00 +14°C° 0 mm 3 m/S 768 mmHg 92%
    06:00 +14°C° 0 mm 3 m/S 769 mmHg 91%
    07:00 +17°C° 0 mm 3 m/S 769 mmHg 84%
    08:00 +18°C° 0 mm 3 m/S 769 mmHg 78%
    09:00 +20°C° 0 mm 3 m/S 769 mmHg 71%
    10:00 +20°C° 0 mm 3 m/S 769 mmHg 70%
    11:00 +21°C° 0 mm 3 m/S 769 mmHg 69%
    12:00 +21°C° 0 mm 3 m/S 768 mmHg 68%
    13:00 +21°C° 0 mm 3 m/S 768 mmHg 68%
    14:00 +22°C° 0 mm 3 m/S 768 mmHg 68%
    15:00 +22°C° 0 mm 3 m/S 767 mmHg 67%
    16:00 +21°C° 0,1 mm 3 m/S 767 mmHg 71%
    17:00 +20°C° 0,1 mm 2 m/S 767 mmHg 75%
    18:00 +20°C° 0,1 mm 2 m/S 767 mmHg 79%
    19:00 +18°C° 0,1 mm 2 m/S 767 mmHg 84%
    20:00 +18°C° 0,1 mm 1 m/S 768 mmHg 89%
    21:00 +16°C° 0,1 mm 1 m/S 768 mmHg 94%
    22:00 +16°C° 0 mm 1 m/S 768 mmHg 94%
    23:00 +16°C° 0 mm 1 m/S 768 mmHg 93%

    27 November, Montag

    Zeit Temperatur Niederschläge Wind Luftdruck Luftfeuchtigkeit
    00:00 +16°C° 0 mm 1 m/S 768 mmHg 93%
    01:00 +16°C° 0 mm 1 m/S 768 mmHg 93%
    02:00 +15°C° 0 mm 1 m/S 767 mmHg 93%
    03:00 +15°C° 0 mm 1 m/S 767 mmHg 92%
    04:00 +16°C° 0 mm 1 m/S 767 mmHg 90%
    05:00 +16°C° 0 mm 2 m/S 768 mmHg 88%
    06:00 +17°C° 0 mm 2 m/S 768 mmHg 86%
    07:00 +19°C° 0 mm 2 m/S 768 mmHg 76%
    08:00 +21°C° 0 mm 2 m/S 768 mmHg 67%
    09:00 +24°C° 0 mm 2 m/S 769 mmHg 57%
    10:00 +25°C° 0,1 mm 3 m/S 768 mmHg 55%
    11:00 +26°C° 0,1 mm 3 m/S 768 mmHg 53%
    12:00 +27°C° 0,1 mm 4 m/S 768 mmHg 51%
    13:00 +27°C° 0,2 mm 4 m/S 768 mmHg 52%
    14:00 +26°C° 0,2 mm 4 m/S 768 mmHg 53%
    15:00 +26°C° 0,2 mm 4 m/S 768 mmHg 53%
    16:00 +25°C° 0,2 mm 3 m/S 768 mmHg 58%
    17:00 +24°C° 0,2 mm 3 m/S 768 mmHg 63%
    18:00 +22°C° 0,2 mm 3 m/S 768 mmHg 69%
    19:00 +21°C° 0,2 mm 3 m/S 768 mmHg 75%
    20:00 +19°C° 0,2 mm 2 m/S 769 mmHg 82%
    21:00 +17°C° 0,2 mm 2 m/S 769 mmHg 88%
    22:00 +17°C° 0,1 mm 2 m/S 769 mmHg 89%
    23:00 +17°C° 0,1 mm 2 m/S 770 mmHg 89%

    28 November, Dienstag

    Zeit Temperatur Niederschläge Wind Luftdruck Luftfeuchtigkeit
    00:00 +17°C° 0,1 mm 2 m/S 770 mmHg 90%
    01:00 +17°C° 0 mm 2 m/S 770 mmHg 90%
    02:00 +16°C° 0 mm 2 m/S 769 mmHg 91%
    03:00 +16°C° 0 mm 2 m/S 769 mmHg 91%
    04:00 +17°C° 0 mm 3 m/S 769 mmHg 89%
    05:00 +17°C° 0 mm 3 m/S 770 mmHg 87%
    06:00 +17°C° 0 mm 3 m/S 770 mmHg 86%
    07:00 +20°C° 0,1 mm 3 m/S 770 mmHg 76%
    08:00 +22°C° 0,1 mm 3 m/S 770 mmHg 67%
    09:00 +25°C° 0,1 mm 3 m/S 770 mmHg 58%
    10:00 +26°C° 0,2 mm 3 m/S 770 mmHg 56%
    11:00 +26°C° 0,2 mm 4 m/S 770 mmHg 54%
    12:00 +27°C° 0,2 mm 4 m/S 769 mmHg 52%
    13:00 +27°C° 0,3 mm 4 m/S 769 mmHg 52%
    14:00 +27°C° 0,3 mm 4 m/S 769 mmHg 53%
    15:00 +26°C° 0,3 mm 4 m/S 769 mmHg 54%
    16:00 +26°C° 0,3 mm 3 m/S 769 mmHg 57%
    17:00 +25°C° 0,3 mm 3 m/S 769 mmHg 60%
    18:00 +24°C° 0,3 mm 3 m/S 769 mmHg 63%
    19:00 +21°C° 0,1 mm 2 m/S 769 mmHg 70%
    20:00 +19°C° 0,1 mm 2 m/S 770 mmHg 77%
    21:00 +18°C° 0,1 mm 2 m/S 770 mmHg 84%
    22:00 +17°C° 0 mm 2 m/S 770 mmHg 85%
    23:00 +17°C° 0 mm 2 m/S 770 mmHg 85%

    29 November, Mittwoch

    Zeit Temperatur Niederschläge Wind Luftdruck Luftfeuchtigkeit
    00:00 +17°C° 0 mm 2 m/S 770 mmHg 86%
    01:00 +16°C° 0 mm 2 m/S 770 mmHg 87%
    02:00 +16°C° 0 mm 1 m/S 769 mmHg 88%
    03:00 +16°C° 0 mm 1 m/S 769 mmHg 89%
    04:00 +16°C° 0 mm 1 m/S 769 mmHg 88%
    05:00 +18°C° 0 mm 1 m/S 769 mmHg 87%
    06:00 +18°C° 0 mm 1 m/S 769 mmHg 86%
    07:00 +19°C° 0 mm 2 m/S 770 mmHg 81%
    08:00 +20°C° 0 mm 2 m/S 770 mmHg 76%
    09:00 +21°C° 0 mm 3 m/S 770 mmHg 71%
    10:00 +22°C° 0,3 mm 3 m/S 770 mmHg 71%
    11:00 +22°C° 0,3 mm 4 m/S 770 mmHg 71%
    12:00 +22°C° 0,3 mm 4 m/S 770 mmHg 71%
    13:00 +22°C° 0,4 mm 5 m/S 770 mmHg 73%
    14:00 +21°C° 0,4 mm 5 m/S 770 mmHg 74%
    15:00 +21°C° 0,4 mm 5 m/S 769 mmHg 75%
    16:00 +20°C° 0,2 mm 5 m/S 769 mmHg 77%
    17:00 +20°C° 0,2 mm 5 m/S 770 mmHg 78%
    18:00 +20°C° 0,2 mm 5 m/S 770 mmHg 79%
    19:00 +18°C° 0 mm 4 m/S 770 mmHg 85%
    20:00 +17°C° 0 mm 4 m/S 770 mmHg 90%
    21:00 +14°C° 0 mm 4 m/S 771 mmHg 95%
    22:00 +14°C° 0 mm 3 m/S 771 mmHg 95%
    23:00 +13°C° 0 mm 3 m/S 771 mmHg 95%
    Mehr zeigen